Regional Weather Roundup
Issued by NWS

Home | Current Version | Previous Version | Graphics & Text | Print | Product List | Glossary On
Versions: 1 2 3 4 5 6 7 8 9 10 11 12 13 14 15 16 17 18 19 20 21 22 23 24 25 26 27 28 29 30 31 32 33 34 35 36 37 38 39 40 41 42 43 44 45 46 47 48 49 50
000
ASUS43 KOAX 171102
RWRNE

WEATHER ROUNDUP FOR NEBRASKA
NATIONAL WEATHER SERVICE OMAHA NE
500 AM CST WED JAN 17 2018

NOTES: SATELLITE DATA IS BEING USED TO AUGMENT CLOUD COVER ABOVE
       12000 FEET.
       "FAIR" INDICATES FEW OR NO CLOUDS BELOW 12,000 FEET WITH NO
       SIGNIFICANT WEATHER AND/OR OBSTRUCTIONS TO VISIBILITY.


NEZ001>004-019>022-054>056-171200-
NEBRASKA PANHANDLE

CITY           SKY/WX    TMP DP  RH WIND       PRES   REMARKS
SCOTTSBLUFF    CLEAR      5   1  83 NW9       30.24S WCI  -9
ALLIANCE       CLEAR      0  -3  87 W5        30.21F WCI -10
CHADRON        CLEAR      8   3  80 SW7       30.22F WCI  -3
GORDON         FAIR      13   3  65 W8        30.20S WCI   2
KIMBALL        CLEAR     12   5  73 W3        30.22S
SIDNEY         CLEAR     10   2  69 W10       30.23S WCI  -4
$$

NEZ057>060-069>072-079>082-171200-
SOUTHWEST NEBRASKA

CITY           SKY/WX    TMP DP  RH WIND       PRES   REMARKS
NORTH PLATTE   CLEAR      7  -2  66 S6        30.34F WCI  -3
IMPERIAL       CLEAR      4   0  83 SW5       30.29F WCI  -5
LEXINGTON      CLEAR     11  -1  60 SW6       30.39F WCI   1
MCCOOK         CLEAR      3  -4  72 CALM      30.38F
OGALLALA       CLEAR      5   0  80 CALM      30.29F
$$

NEZ005>010-023>029-035>040-094-171200-
NORTH CENTRAL NEBRASKA

CITY           SKY/WX    TMP DP  RH WIND       PRES   REMARKS
VALENTINE      CLEAR      9   2  73 SW6       30.24F WCI  -1
AINSWORTH      CLEAR     13   3  65 SW12      30.25F WCI  -1
BROKEN BOW     CLEAR      7  -3  64 S7        30.34F WCI  -5
O`NEILL        CLEAR      9   1  72 S10       30.34F WCI  -6
ORD            CLEAR      9   0  67 S7        30.38F WCI  -2
THEDFORD       CLEAR     11   2  65 SW5       30.28F WCI   3
$$

NEZ041-046>049-061>064-073>077-083>087-171200-
SOUTH CENTRAL NEBRASKA

CITY           SKY/WX    TMP DP  RH WIND       PRES   REMARKS
GRAND ISLAND   CLOUDY     7   0  73 SW14      30.46F WCI -10
AURORA         CLOUDY     5  -1  74 SW12      30.47F WCI -10
HASTINGS       CLOUDY     6  -1  73 S9        30.47F WCI  -8
HEBRON         CLOUDY     4  -1  79 CALM      30.56S
HOLDREGE       CLOUDY     7   1  75 S13       30.42F WCI  -9
KEARNEY        CLOUDY     6  -1  73 S13       30.43F WCI -10
YORK           CLOUDY     3   0  85 SW9       30.50F WCI -11
$$

NEZ011>018-030>034-042>045-171200-
NORTHEAST NEBRASKA

CITY           SKY/WX    TMP DP  RH WIND       PRES   REMARKS
NORFOLK        CLOUDY     7   0  73 SW15      30.43S WCI -10
ALBION         CLOUDY     6   0  75 S7        30.44F WCI  -5
BLAIR          CLOUDY     5   1  81 S8        30.52S WCI  -8
COLUMBUS       CLEAR      7   1  76 SW12      30.50F WCI  -8
FREMONT        CLEAR      6   0  76 S8        30.53S WCI  -7
TEKAMAH        CLEAR     -2  -7  79 S9        30.53F WCI -18
WAYNE          CLEAR      8   1  70 SW15      30.44F WCI  -9
$$

NEZ050>053-065>068-078-088>093-171200-
SOUTHEAST NEBRASKA

CITY           SKY/WX    TMP DP  RH WIND       PRES   REMARKS
LINCOLN        CLOUDY     5  -1  76 SW6       30.57F WCI  -6
OMAHA EPPLEY   CLOUDY     1  -3  83 SE10      30.58F WCI -15
BEATRICE       CLOUDY     1  -2  85 S6        30.58S WCI -10
FALLS CITY     CLOUDY    -5 -10  79 CALM      30.62F
NEBRASKA CITY  CLOUDY     2  -1  87 SW10      30.58F WCI -14
PLATTSMOUTH    CLOUDY     1  -3  85 S8        30.56F WCI -13
$$

NEZ044-045-051>053-067-171200-
OMAHA AREA

CITY           SKY/WX    TMP DP  RH WIND       PRES   REMARKS
OMAHA EPPLEY   CLOUDY     1  -3  83 SE10      30.58F WCI -15
BLAIR          CLOUDY     5   1  81 S8        30.52S WCI  -8
FREMONT        CLEAR      6   0  76 S8        30.53S WCI  -7
MILLARD        CLOUDY     4  -1  82 CALM      30.57F
OFFUTT AFB     CLOUDY    -5 -10  80 CALM      30.57F
PLATTSMOUTH    CLOUDY     1  -3  85 S8        30.56F WCI -13
WAHOO          FAIR       6   0  78 SW10      30.54S WCI  -9
$$



USA.gov is the U.S. government's official web portal to all federal, state and local government web resources and services.